Temperature
34 34 33 34 35 35 34 34 33 34 35 34 33 33 33 32 32 31 30 29 28 27 26 25 24 24 23 22 21 20 20 20 20 19 19 19 19 19 19 19 19 19 19 18
34 33 35 35 36 35 35 34 33 34 35 34 33 33 33 33 32 32 31 29 28 27 26 25 24 24 23 22 21 21 20 20 20 20 20 20 20 19 19 19 19 19 19 18
33 34 35 35 35 34 34 34 34 34 34 34 33 31 32 33 33 32 31 30 29 28 27 26 25 24 23 22 22 21 21 20 20 20 20 20 19 19 19 19 19 19 19 18
34 35 35 34 34 34 33 35 35 34 33 32 33 30 32 33 33 33 32 31 30 29 28 26 25 24 24 23 22 21 21 21 20 20 20 19 19 19 20 19 19 19 19 18
34 35 34 33 34 35 34 35 35 34 33 32 32 31 31 32 32 33 33 32 31 30 28 27 26 25 24 23 22 22 21 21 21 20 20 20 20 19 19 19 19 19 19 18
34 35 35 35 35 35 35 35 34 33 32 30 31 31 30 31 31 32 33 32 31 31 29 28 27 25 24 24 23 22 21 21 21 21 20 20 20 20 19 19 19 19 19 19
33 34 35 35 34 35 35 33 31 30 30 30 31 31 31 32 33 33 33 33 32 31 29 28 27 26 25 24 23 22 22 21 21 21 20 20 20 20 20 19 19 19 19 19
32 32 34 35 34 34 34 33 31 30 30 30 31 31 32 34 34 34 33 33 32 31 30 29 27 26 25 24 23 23 22 22 21 21 21 20 20 20 20 20 19 19 19 18
32 32 35 35 35 35 33 33 34 33 32 31 31 31 32 33 34 34 34 33 32 31 30 29 28 27 26 25 24 23 22 22 21 21 21 20 20 20 20 20 19 19 19 18
33 32 34 35 35 35 35 34 33 32 30 30 31 30 30 31 32 33 34 33 32 31 30 29 28 27 26 25 24 23 23 22 22 21 21 20 20 20 20 20 19 19 19 19
33 32 33 34 33 33 33 33 33 32 31 30 29 30 32 31 32 33 33 33 32 31 30 29 28 28 27 26 24 23 23 22 22 21 21 20 20 20 20 20 19 19 19 18
32 32 31 32 34 35 34 33 33 31 30 31 30 30 32 32 33 32 33 32 31 31 30 29 28 27 27 26 25 24 23 22 22 21 21 21 20 20 20 20 19 19 19 18
31 30 29 30 32 33 33 33 34 33 32 31 31 31 32 32 32 32 32 32 31 30 30 29 28 27 26 26 25 24 23 22 22 21 21 21 20 20 20 19 19 19 19 18
30 30 29 30 31 32 32 32 33 33 32 31 31 31 32 32 32 31 31 31 31 30 29 29 27 27 26 25 25 24 23 22 22 21 21 20 20 20 20 19 19 19 18 18
30 29 29 30 32 32 32 32 33 32 32 31 31 31 31 31 31 31 30 30 30 29 29 28 27 26 25 25 24 23 23 22 22 21 20 20 20 20 20 19 19 19 18 18
29 28 29 29 31 32 31 32 32 32 32 32 32 31 32 31 31 30 30 30 29 29 28 27 26 25 25 24 24 23 23 22 22 21 21 20 20 20 20 19 19 18 18 18
28 27 27 28 30 30 30 32 32 32 32 32 31 31 32 31 30 29 29 29 28 28 27 27 26 25 25 24 24 23 23 22 22 21 20 20 20 20 19 19 18 18 18 17
27 26 27 27 28 27 30 32 32 32 32 32 32 31 31 30 29 28 28 27 27 27 26 26 25 25 24 24 23 23 22 22 21 21 20 20 20 19 19 19 18 18 17 17
27 26 26 27 27 28 30 31 32 31 30 31 31 31 31 30 29 28 27 27 26 26 25 25 25 25 24 23 23 23 22 21 21 21 20 20 20 19 19 19 18 18 17 17
27 26 25 26 26 27 28 31 31 31 29 30 30 29 29 29 29 27 26 25 25 25 24 24 24 24 24 23 23 22 22 21 21 20 20 20 19 19 19 19 18 18 17 17
25 25 25 25 26 27 29 30 30 28 27 28 28 28 28 27 27 25 25 24 24 24 24 24 24 23 23 23 22 22 21 21 20 20 20 20 19 19 19 18 18 18 17 17
25 25 25 25 25 25 28 28 27 26 26 27 27 26 26 26 25 24 24 23 23 23 23 23 23 22 22 22 21 21 21 20 20 20 20 19 19 19 18 18 18 17 17 16
25 25 25 25 25 25 25 25 25 25 25 25 25 25 25 25 24 24 23 22 22 22 22 22 22 21 21 21 21 20 20 20 20 19 19 19 18 18 18 18 17 17 17 16
25 25 24 24 24 24 24 24 24 24 24 24 24 24 24 24 23 23 22 21 21 21 21 21 21 21 20 20 20 20 19 19 19 19 18 18 18 18 17 17 17 17 16 16
24 24 24 23 24 24 24 23 23 23 23 23 24 23 23 23 22 22 21 20 20 20 20 20 19 20 20 20 19 19 19 19 18 18 18 17 17 17 17 17 17 17 17 16
24 24 23 23 23 24 23 23 23 22 22 22 22 22 22 22 21 21 20 20 19 19 19 19 19 19 19 19 19 19 18 18 18 17 17 16 16 16 16 16 16 16 16 16
Wind_Speed
13 12 12 10 9 7 5 4 2 4 7 5 4 8 13 14 12 13 13 13 13 12 12 11 10 10 10 9 8 6 5 5 3 1 2 2 2 2 2 2 3 2 1 1
13 15 13 9 8 7 7 4 4 5 6 4 4 6 11 14 13 12 13 14 13 13 12 12 11 10 11 10 9 8 6 5 5 3 2 1 1 1 2 1 2 2 1 1
17 13 10 10 9 9 9 8 5 4 4 6 5 6 8 12 12 12 12 14 15 15 15 14 13 11 11 10 10 8 6 6 5 4 3 2 2 1 1 2 2 2 1 1
16 15 9 10 11 11 9 7 6 6 5 5 5 4 8 12 12 13 13 13 14 15 16 16 15 12 11 11 10 8 8 6 5 5 3 3 3 2 2 2 2 3 2 2
15 14 12 13 13 12 10 6 8 7 7 8 5 3 4 8 10 11 13 14 14 14 15 15 15 13 12 12 11 9 8 7 6 5 5 3 2 2 2 2 3 2 2 1
17 14 14 14 13 11 9 9 8 8 8 8 8 6 3 5 7 8 9 12 13 14 15 14 14 13 12 11 11 11 9 7 6 6 5 4 3 1 1 1 2 2 2 1
18 17 14 13 14 13 12 10 8 8 7 8 9 6 5 8 8 9 9 10 12 13 15 15 15 15 13 12 11 11 10 8 7 7 6 5 4 4 3 2 2 2 1 2
17 17 16 15 15 12 14 14 11 8 7 5 6 4 4 7 9 8 9 9 11 12 13 15 15 14 13 13 12 11 11 9 8 8 6 5 5 4 3 3 1 1 1 2
14 16 16 16 15 15 14 14 15 12 12 8 5 3 3 5 7 8 9 10 10 11 12 13 15 16 15 13 12 11 11 10 9 8 7 6 5 4 3 3 2 1 2 2
16 12 14 15 15 18 17 14 10 10 8 10 6 6 6 7 8 7 7 9 11 11 11 11 12 14 14 14 12 11 12 11 9 8 8 8 6 5 4 3 3 3 3 3
18 14 14 15 17 17 16 16 12 9 9 9 7 4 4 6 5 7 8 7 9 10 11 10 10 12 13 14 14 12 11 11 10 9 7 6 7 6 5 4 4 3 3 2
13 13 13 15 14 16 17 17 15 11 8 9 8 5 4 5 6 5 6 8 8 8 9 10 11 11 11 12 12 12 12 11 10 9 8 7 6 6 6 5 4 4 3 3
8 9 12 14 14 16 17 17 17 16 12 11 11 5 5 4 3 4 4 8 8 8 8 8 9 10 9 9 10 10 11 11 11 10 9 8 7 6 5 5 4 4 3 3
6 10 14 15 12 13 16 17 17 17 12 11 11 7 6 5 3 4 5 6 7 8 7 6 7 8 9 8 8 8 9 9 10 10 9 8 7 6 6 5 5 4 4 3
8 13 16 18 16 14 15 16 18 18 16 13 11 10 7 5 3 4 4 3 5 6 7 6 6 7 8 8 8 8 8 8 8 9 9 9 8 7 7 6 5 5 4 4
9 10 14 17 18 17 16 17 17 17 15 14 13 9 2 4 5 5 4 2 3 4 6 7 7 7 7 8 9 9 9 9 9 9 9 9 9 8 7 7 6 5 5 4
9 9 12 15 18 17 19 17 16 13 13 13 11 7 3 3 3 5 4 3 2 1 3 4 5 6 6 7 7 7 8 9 9 9 8 9 9 9 8 8 7 6 5 5
8 8 9 14 15 19 14 11 11 11 10 9 7 4 3 4 4 5 4 3 2 2 2 1 2 5 6 7 8 8 8 8 9 9 9 9 9 9 8 7 7 6 5 5
9 8 10 12 16 17 13 11 11 10 8 6 5 3 3 3 4 5 4 3 2 2 2 1 1 3 5 6 7 8 8 8 9 9 8 8 8 9 8 8 7 6 6 5
12 9 11 12 15 15 9 7 5 7 8 3 3 2 2 3 4 2 5 4 3 3 3 2 1 1 3 4 6 7 7 8 8 8 7 7 7 8 8 8 7 6 6 6
14 12 14 15 15 11 7 6 6 9 3 1 0 1 1 2 3 4 5 4 3 3 3 2 1 1 2 3 5 6 6 6 6 6 7 7 7 7 7 7 7 7 6 6
12 12 13 13 14 9 4 4 3 2 4 3 3 3 2 2 4 5 5 4 4 4 4 3 2 2 2 3 4 5 5 5 6 6 7 7 7 7 7 7 7 7 7 7
9 7 6 5 4 2 5 5 4 3 4 4 3 2 2 2 3 3 4 4 4 3 4 3 3 2 3 3 4 4 4 5 6 7 7 7 7 6 7 8 8 7 7 7
7 4 4 3 2 0 1 3 2 2 2 2 2 1 1 1 2 3 3 3 3 3 3 3 3 2 2 2 4 4 4 5 6 6 6 6 7 7 7 6 7 7 7 7
4 5 7 6 4 3 2 1 3 3 3 3 3 2 1 1 1 1 1 2 2 2 2 2 2 1 1 1 2 3 4 5 5 5 5 5 6 6 6 5 4 6 5 5
6 6 7 5 2 2 1 2 4 3 3 3 3 3 3 2 2 1 0 2 2 2 2 2 2 3 2 0 2 3 4 5 5 6 5 5 5 5 5 5 4 3 3 5
Wind_Direction
227 232 239 240 234 247 239 240 174 146 148 191 187 161 165 169 178 172 172 173 171 172 170 162 161 156 154 150 153 163 171 157 167 187 187 190 185 198 179 169 153 172 217 234
231 235 239 248 250 255 256 243 225 176 163 196 204 194 173 171 180 179 175 174 173 169 162 165 165 168 163 159 162 167 172 165 173 183 183 182 198 219 179 155 147 170 182 263
231 232 232 239 241 247 256 251 247 222 190 213 212 218 189 173 178 180 181 175 174 176 171 170 173 176 173 168 169 171 166 168 179 179 183 191 172 238 197 169 150 156 168 207
238 236 229 238 240 245 251 245 255 246 235 245 220 212 193 178 180 184 186 183 178 176 171 172 175 177 177 172 168 163 162 169 174 175 188 201 187 193 200 185 145 157 174 202
235 232 222 236 240 240 254 259 255 256 253 265 248 234 213 177 183 186 187 185 180 175 170 172 173 173 178 175 169 163 161 166 169 181 194 207 220 204 182 153 142 151 155 185
245 236 225 232 238 241 250 257 257 257 259 260 252 239 195 192 189 184 187 184 176 173 167 168 167 166 173 172 169 165 160 166 172 181 189 197 218 211 145 145 158 181 160 150
236 239 227 227 233 226 234 237 243 240 235 241 242 239 185 176 177 186 174 172 169 166 165 167 167 167 171 173 172 167 162 169 177 183 190 189 199 196 193 202 196 206 148 129
226 229 223 223 231 228 228 235 242 253 250 236 237 228 188 159 161 172 162 167 166 162 165 168 168 169 173 174 170 167 162 170 178 183 186 184 185 197 187 191 209 150 94 88
233 229 219 219 225 234 233 238 249 257 266 256 224 214 222 181 172 166 163 160 158 161 166 169 170 174 174 174 171 168 161 168 175 178 175 180 184 181 166 159 174 118 107 126
254 253 230 218 220 229 241 246 252 254 265 269 240 221 213 193 184 163 164 163 157 159 163 167 171 174 173 173 167 164 163 166 171 174 178 181 178 169 171 161 135 111 95 82
244 253 243 224 217 225 228 239 245 255 258 260 260 245 182 174 169 183 180 161 155 159 160 164 168 166 165 167 166 164 163 165 170 176 178 171 169 170 168 165 155 139 132 134
239 249 250 238 231 228 233 237 238 242 251 260 260 244 204 182 180 196 172 149 155 155 153 159 158 156 160 164 165 166 168 171 174 173 167 170 168 168 168 166 158 151 151 154
247 251 250 240 235 226 231 238 244 243 242 247 254 236 165 177 175 143 140 136 142 138 143 151 150 153 158 159 157 162 171 174 175 171 171 171 171 168 166 156 148 152 147 139
259 248 250 245 232 228 228 235 242 248 245 243 247 234 193 184 159 134 128 125 139 137 140 149 147 151 151 150 151 159 166 168 172 169 172 169 168 163 155 150 151 153 145 139
243 245 252 261 259 250 243 238 238 243 248 247 245 244 213 161 145 116 110 125 135 141 145 143 147 147 150 153 157 165 165 164 166 167 171 166 164 160 157 156 153 148 147 143
229 257 256 258 260 257 256 246 241 238 243 245 248 251 205 136 133 120 120 133 121 137 147 148 150 151 158 165 172 170 169 165 163 170 173 166 165 164 164 162 157 154 150 141
224 236 253 253 254 256 251 248 242 239 241 242 245 248 182 144 118 108 117 124 122 110 125 138 152 158 166 173 171 172 172 166 165 170 172 169 168 168 168 169 162 160 159 151
242 245 247 251 253 248 250 255 249 244 244 244 244 238 195 150 131 97 87 87 75 79 68 101 159 167 174 178 178 176 176 172 171 172 176 173 171 167 163 164 164 163 161 158
225 236 244 247 246 244 245 244 242 241 241 252 251 243 222 191 148 108 84 84 74 62 64 39 227 194 179 179 177 172 174 175 174 175 176 171 167 165 166 169 167 164 165 165
213 213 235 244 248 247 248 248 257 254 235 242 245 256 271 273 230 113 72 59 48 46 54 39 0 210 168 169 168 171 178 179 180 176 168 161 165 169 171 168 168 167 168 170
207 209 225 241 246 249 264 253 233 238 231 57 114 69 13 23 34 68 69 61 41 41 39 32 15 40 107 131 155 169 183 185 173 158 157 163 169 172 171 166 171 172 173 173
216 216 219 235 243 243 314 254 232 82 62 57 56 62 50 45 68 73 71 54 39 39 29 27 53 69 91 120 152 170 179 169 155 158 164 169 173 181 174 169 174 176 177 180
229 233 231 237 229 69 42 59 64 66 63 44 35 31 33 60 75 64 58 46 32 38 35 27 45 76 109 129 151 172 169 159 161 165 169 172 174 178 172 176 179 182 186 192
226 232 239 249 206 61 60 52 26 33 33 358 328 330 49 26 48 53 55 41 28 29 33 31 38 46 61 115 145 158 161 166 168 172 172 170 174 180 180 183 186 191 195 199
254 232 232 230 233 240 256 327 330 356 342 324 321 320 281 298 321 73 84 65 32 17 21 15 11 11 37 92 130 154 160 164 169 171 173 177 185 184 182 184 194 195 200 204
262 255 245 245 263 271 274 321 312 313 321 339 328 326 319 301 302 295 79 77 52 14 19 4 347 340 338 211 158 162 158 162 168 172 177 188 192 188 185 183 188 176 198 195
Height
1478 1480 1481 1474 1471 1472 1474 1479 1484 1481 1478 1483 1487 1490 1491 1495 1499 1503 1508 1512 1517 1521 1524 1528 1530 1532 1534 1535 1536 1538 1539 1539 1540 1541 1542 1543 1544 1545 1546 1546 1546 1547 1547 1548
1477 1479 1471 1468 1468 1470 1473 1481 1483 1479 1476 1482 1488 1488 1486 1490 1494 1498 1503 1509 1513 1518 1522 1525 1528 1530 1532 1533 1535 1536 1537 1539 1539 1541 1542 1543 1544 1544 1545 1545 1546 1546 1546 1547
1477 1472 1467 1468 1470 1475 1476 1479 1480 1480 1477 1478 1486 1495 1488 1487 1490 1495 1499 1504 1509 1514 1518 1522 1525 1528 1531 1532 1533 1535 1536 1537 1538 1539 1541 1542 1543 1544 1544 1545 1545 1545 1545 1546
1470 1466 1467 1470 1472 1474 1480 1470 1473 1476 1485 1490 1488 1508 1491 1485 1488 1491 1495 1499 1504 1509 1514 1518 1522 1525 1528 1530 1532 1533 1535 1536 1537 1538 1540 1541 1542 1543 1543 1544 1544 1544 1544 1545
1468 1464 1468 1473 1471 1470 1472 1468 1472 1475 1484 1491 1488 1502 1497 1484 1489 1488 1490 1494 1499 1504 1509 1514 1518 1522 1526 1529 1530 1532 1533 1534 1536 1537 1538 1539 1541 1542 1543 1543 1544 1544 1544 1543
1463 1460 1463 1466 1465 1466 1467 1471 1475 1478 1486 1508 1494 1501 1504 1490 1488 1486 1488 1491 1495 1500 1506 1511 1516 1520 1523 1527 1529 1530 1531 1532 1534 1535 1537 1538 1539 1540 1542 1542 1543 1543 1543 1543
1469 1462 1459 1462 1466 1467 1469 1483 1499 1506 1508 1510 1488 1493 1495 1480 1478 1481 1483 1487 1492 1497 1502 1508 1513 1517 1520 1524 1526 1528 1529 1531 1532 1534 1535 1537 1538 1539 1540 1541 1542 1542 1543 1542
1476 1475 1460 1460 1464 1469 1470 1477 1499 1514 1513 1503 1490 1494 1484 1471 1475 1476 1481 1486 1490 1495 1499 1504 1509 1513 1517 1521 1524 1526 1527 1529 1530 1532 1533 1535 1537 1538 1539 1540 1541 1542 1542 1542
1468 1470 1455 1456 1458 1463 1471 1472 1469 1483 1491 1499 1496 1487 1479 1473 1473 1475 1479 1483 1488 1493 1497 1501 1506 1510 1514 1518 1521 1524 1525 1527 1529 1530 1532 1534 1535 1537 1538 1539 1540 1541 1541 1541
1458 1467 1456 1453 1457 1459 1461 1465 1472 1485 1504 1509 1499 1495 1490 1479 1475 1474 1477 1481 1486 1491 1495 1500 1504 1507 1511 1515 1519 1521 1523 1525 1527 1529 1531 1533 1534 1535 1537 1538 1538 1539 1540 1540
1456 1467 1462 1456 1462 1465 1466 1469 1472 1477 1485 1504 1513 1502 1474 1475 1474 1474 1477 1480 1483 1488 1493 1498 1502 1505 1509 1513 1516 1519 1522 1524 1526 1528 1530 1531 1532 1534 1535 1536 1537 1537 1538 1538
1456 1462 1468 1461 1452 1453 1458 1463 1468 1485 1490 1487 1497 1496 1469 1469 1471 1474 1476 1479 1483 1487 1491 1496 1500 1503 1507 1510 1514 1517 1520 1522 1524 1526 1528 1530 1531 1532 1533 1534 1535 1536 1536 1536
1460 1467 1479 1476 1467 1458 1460 1459 1460 1464 1473 1484 1493 1491 1468 1469 1470 1474 1476 1479 1484 1487 1491 1495 1498 1502 1505 1508 1512 1515 1518 1520 1522 1524 1526 1528 1529 1531 1532 1533 1534 1534 1535 1535
1463 1468 1475 1480 1471 1462 1464 1461 1459 1464 1476 1481 1482 1480 1472 1470 1472 1475 1477 1480 1484 1488 1491 1495 1498 1501 1504 1507 1510 1513 1516 1518 1521 1522 1524 1526 1527 1529 1530 1531 1532 1533 1534 1533
1463 1470 1468 1463 1457 1456 1458 1459 1459 1463 1465 1475 1475 1473 1470 1468 1473 1475 1479 1482 1484 1488 1491 1494 1497 1500 1503 1505 1508 1511 1513 1516 1519 1520 1522 1523 1525 1526 1528 1529 1530 1531 1531 1532
1464 1470 1469 1468 1459 1456 1458 1456 1456 1459 1460 1465 1467 1469 1464 1469 1473 1476 1480 1483 1485 1488 1491 1493 1496 1499 1501 1503 1506 1508 1510 1513 1515 1518 1519 1521 1523 1524 1525 1527 1528 1529 1529 1530
1464 1472 1477 1475 1463 1461 1467 1455 1454 1457 1457 1461 1469 1467 1465 1469 1474 1477 1480 1483 1486 1489 1490 1493 1495 1497 1499 1501 1503 1506 1509 1511 1513 1515 1517 1519 1520 1522 1523 1525 1526 1527 1527 1528
1468 1473 1474 1474 1474 1484 1461 1447 1448 1453 1455 1456 1460 1463 1466 1470 1476 1478 1481 1484 1487 1489 1491 1492 1494 1496 1497 1499 1501 1504 1506 1508 1510 1512 1514 1516 1518 1519 1520 1522 1523 1524 1525 1526
1465 1471 1476 1475 1477 1471 1457 1449 1450 1456 1460 1458 1461 1464 1468 1471 1475 1480 1483 1485 1487 1489 1490 1492 1493 1494 1496 1497 1499 1501 1503 1505 1507 1509 1511 1513 1515 1516 1518 1519 1521 1522 1522 1523
1463 1468 1476 1475 1480 1479 1462 1450 1450 1456 1466 1462 1463 1466 1469 1471 1476 1482 1484 1485 1487 1489 1489 1490 1491 1493 1494 1495 1497 1498 1501 1503 1504 1506 1508 1510 1512 1513 1515 1517 1518 1519 1520 1521
1467 1471 1475 1475 1475 1467 1455 1453 1455 1471 1473 1466 1467 1469 1472 1475 1479 1482 1483 1485 1486 1488 1488 1489 1490 1491 1492 1493 1494 1496 1498 1500 1501 1503 1505 1507 1509 1510 1512 1513 1515 1516 1517 1519
1463 1467 1471 1472 1475 1474 1458 1455 1462 1469 1468 1468 1470 1472 1475 1477 1479 1481 1483 1484 1485 1486 1487 1488 1489 1490 1491 1491 1492 1493 1495 1496 1499 1500 1502 1503 1505 1508 1509 1511 1512 1513 1514 1516
1456 1459 1461 1465 1468 1465 1463 1463 1467 1468 1470 1471 1473 1475 1476 1478 1480 1482 1483 1484 1485 1486 1486 1487 1488 1488 1489 1490 1490 1491 1492 1493 1495 1497 1498 1500 1502 1504 1506 1507 1509 1510 1511 1513
1454 1456 1460 1464 1463 1464 1466 1467 1468 1470 1471 1473 1474 1475 1477 1479 1480 1482 1483 1484 1485 1485 1485 1486 1486 1486 1487 1488 1488 1489 1490 1491 1493 1494 1495 1496 1499 1501 1503 1504 1506 1507 1509 1510
1455 1458 1460 1463 1464 1465 1467 1469 1470 1471 1472 1473 1474 1475 1477 1478 1479 1481 1482 1483 1484 1485 1485 1485 1485 1485 1485 1486 1486 1487 1488 1489 1490 1491 1492 1494 1496 1498 1500 1501 1503 1503 1505 1506
1457 1459 1461 1463 1465 1466 1468 1470 1471 1472 1473 1474 1475 1476 1477 1477 1479 1480 1480 1481 1482 1483 1483 1483 1484 1484 1484 1484 1484 1485 1486 1487 1487 1489 1490 1492 1494 1495 1497 1498 1499 1500 1501 1503